Location: Chaumontel
(49.1247°N, 2.4324°E)
Time: 01:00:49
(UTC+00:00)

Cosmos 1461 - Pass Details

Date: 03 February 2023
Orbit: 492 x 644 km, 65.0° (Epoch: 21 March)

Event Time Altitude Azimuth Distance (km) Brightness Sun altitude
Rises 17:39:04 0° 186° (S) 2,733 6.7 -8.4°
Reaches altitude 10° 17:41:27 10° 174° (S) 1,871 5.7 -8.8°
Maximum altitude 17:45:02 27° 116° (ESE) 1,135 4.0 -9.3°
Enters shadow 17:48:19 12° 61° (ENE) 1,808 4.8 -9.8°
